Weather History for Oscoda, MI

Change the Weather History Date:

Monday, November 11, 2013

  Actual Average Record
Temperature  
Mean Temperature 32 °F -  
Max Temperature 38 °F 44 °F 64 °F (2012)
Min Temperature 24 °F 30 °F 17 °F (1997)
Degree Days  
Heating Degree Days 34    
Moisture  
Dew Point 25 °F    
Average Humidity 75    
Maximum Humidity 95    
Minimum Humidity 52    
Precipitation  
Precipitation 0.03 in - - ()
Sea Level Pressure  
Sea Level Pressure 30.08 in    
Wind  
Wind Speed 13 mph (West)    
Max Wind Speed 22 mph    
Max Gust Speed 29 mph    
Visibility 10 miles    
Events Rain    
Averages and records for this station are not official NWS values.
T = Trace of Precipitation, MM = Missing Value Source: NWS Daily Summary

Daily Weather History Graph

Daily Weather History Graph

Search for Another Location

Airport:

Trip Planner

Search our weather history database for the weather conditions in past years. The results will help you decide how hot, cold, wet, or windy it might be!

Date:

Astronomy

Nov. 11, 2013 Rise Set
Actual Time 7:24 AM EST 5:10 PM EST
Civil Twilight 6:53 AM EST 5:41 PM EST
Nautical Twilight 6:18 AM EST 6:16 PM EST
Astronomical Twilight 5:44 AM EST 6:50 PM EST
Moon 2:02 PM EST (11/11) 12:54 AM EST (11/11)
Length of Visible Light 10h 47m
Length of Day
9h 45m
Waxing Gibbous, 66% of the Moon is Illuminated
Nov 11
Waxing Gibbous
Nov 17
Full
Nov 25
Last Quarter
Dec 2
New
Dec 9
First Quarter

Hourly Weather History & Observations

Time (EST) Temp. Windchill Dew Point Humidity Pressure Visibility Wind Dir Wind Speed Gust Speed Precip Events Conditions
12:14 AM 36.9 °F 29.6 °F 27.7 °F 69% 30.13 in 10.0 mi SW 10.4 mph - N/A   Mostly Cloudy
12:34 AM 36.9 °F 30.1 °F 27.9 °F 70% 30.12 in 10.0 mi SSW 9.2 mph - N/A   Overcast
12:54 AM 36.9 °F 29.6 °F 28.2 °F 71% 30.11 in 10.0 mi SSW 10.4 mph - N/A   Overcast
1:14 AM 37.0 °F 29.8 °F 28.4 °F 71% 30.10 in 10.0 mi SW 10.4 mph - N/A   Overcast
1:34 AM 37.8 °F 30.2 °F 28.8 °F 70% 30.09 in 10.0 mi SW 11.5 mph - N/A   Overcast
1:54 AM 37.9 °F 30.9 °F 28.8 °F 70% 30.08 in 10.0 mi SW 10.4 mph - N/A   Overcast
2:14 AM 37.8 °F 30.2 °F 29.1 °F 71% 30.07 in 10.0 mi SSW 11.5 mph - N/A   Overcast
2:34 AM 37.8 °F 30.2 °F 29.3 °F 72% 30.06 in 10.0 mi SW 11.5 mph - N/A   Overcast
2:54 AM 37.8 °F 29.8 °F 29.7 °F 73% 30.05 in 10.0 mi SW 12.7 mph - N/A   Overcast
3:14 AM 38.3 °F 30.5 °F 30.6 °F 74% 30.04 in 10.0 mi SW 12.7 mph - N/A   Drizzle
3:34 AM 37.4 °F 29.3 °F 33.3 °F 85% 30.03 in 7.0 mi SW 12.7 mph 19.6 mph N/A Rain Rain
3:54 AM 36.9 °F 28.7 °F 34.2 °F 90% 30.02 in 10.0 mi SW 12.7 mph 19.6 mph N/A Rain Light Rain
4:14 AM 36.5 °F 29.2 °F 34.3 °F 92% 30.01 in 7.0 mi SW 10.4 mph - N/A Rain Light Rain
4:34 AM 36.1 °F 27.7 °F 34.3 °F 93% 30.01 in 7.0 mi SW 12.7 mph - 0.01 in Rain Light Rain
4:54 AM 35.8 °F 27.3 °F 34.3 °F 94% 29.99 in 7.0 mi SW 12.7 mph - 0.01 in Rain Light Rain
5:14 AM 36.0 °F 28.0 °F 34.7 °F 95% 29.99 in 7.0 mi SW 11.5 mph - 0.01 in Rain Light Rain
5:33 AM 36.7 °F 27.6 °F 35.1 °F 94% 29.98 in 10.0 mi WSW 15.0 mph 21.9 mph 0.02 in Rain Light Rain
5:54 AM 37.9 °F 28.5 °F 34.9 °F 89% 29.98 in 10.0 mi WSW 17.3 mph 20.7 mph 0.02 in Rain Light Rain
6:14 AM 37.4 °F 27.8 °F 34.7 °F 90% 29.98 in 10.0 mi WSW 17.3 mph 25.3 mph N/A   Drizzle
6:33 AM 37.2 °F 28.7 °F 35.1 °F 92% 29.98 in 10.0 mi WSW 13.8 mph 24.2 mph N/A   Drizzle
6:54 AM 36.9 °F 28.2 °F 35.1 °F 93% 29.97 in 10.0 mi SW 13.8 mph 19.6 mph N/A   Drizzle
7:14 AM 36.5 °F 28.2 °F 34.9 °F 94% 29.97 in 10.0 mi SW 12.7 mph - N/A   Light Drizzle
7:33 AM 36.5 °F 28.2 °F 34.9 °F 94% 29.96 in 10.0 mi SW 12.7 mph 17.3 mph N/A   Overcast
7:54 AM 36.5 °F 29.2 °F 35.1 °F 95% 29.97 in 10.0 mi SW 10.4 mph - N/A   Drizzle
8:14 AM 36.5 °F 28.7 °F 35.2 °F 95% 29.96 in 7.0 mi SW 11.5 mph - N/A Rain Light Rain
8:33 AM 36.9 °F 27.8 °F 35.6 °F 95% 29.96 in 7.0 mi SW 15.0 mph - N/A Rain Light Rain
8:54 AM 37.4 °F 29.3 °F 35.8 °F 94% 29.96 in 10.0 mi SW 12.7 mph - N/A   Overcast
9:14 AM 37.4 °F 28.9 °F 35.8 °F 94% 29.96 in 10.0 mi WSW 13.8 mph - N/A   Overcast
9:33 AM 37.6 °F 29.1 °F 35.8 °F 93% 29.96 in 10.0 mi WSW 13.8 mph - N/A   Overcast
9:54 AM 38.3 °F 30.1 °F 36.3 °F 93% 29.97 in 10.0 mi WSW 13.8 mph 17.3 mph N/A   Overcast
10:14 AM 38.3 °F 31.4 °F 36.0 °F 91% 29.97 in 7.0 mi WSW 10.4 mph - N/A   Overcast
10:34 AM 38.5 °F 28.3 °F 36.3 °F 92% 29.98 in 7.0 mi NW 20.7 mph 27.6 mph N/A Rain Light Rain
10:54 AM 34.7 °F 25.5 °F 32.9 °F 93% 29.99 in 7.0 mi NNW 13.8 mph 18.4 mph N/A Rain Light Rain
11:14 AM 33.8 °F 22.2 °F 31.3 °F 90% 30.00 in 7.0 mi NNW 20.7 mph 26.5 mph N/A   Overcast
11:34 AM 33.8 °F 22.8 °F 29.1 °F 83% 30.01 in 10.0 mi NNW 18.4 mph 24.2 mph N/A   Overcast
11:54 AM 33.1 °F 20.9 °F 27.1 °F 79% 30.01 in 10.0 mi NW 21.9 mph 27.6 mph N/A   Overcast
12:14 PM 33.4 °F 22.0 °F 27.1 °F 78% 30.01 in 10.0 mi NW 19.6 mph 26.5 mph N/A   Overcast
12:34 PM 33.1 °F 22.2 °F 26.2 °F 76% 30.03 in 10.0 mi NW 17.3 mph 24.2 mph N/A   Overcast
12:54 PM 32.4 °F 20.9 °F 23.7 °F 70% 30.03 in 10.0 mi NW 18.4 mph 28.8 mph N/A   Overcast
1:14 PM 32.4 °F 22.1 °F 22.5 °F 67% 30.04 in 10.0 mi NW 15.0 mph 20.7 mph N/A   Overcast
1:34 PM 32.0 °F 20.5 °F 20.3 °F 62% 30.04 in 10.0 mi NW 18.4 mph 26.5 mph N/A   Overcast
1:54 PM 32.0 °F 20.8 °F 20.5 °F 63% 30.06 in 10.0 mi NW 17.3 mph 24.2 mph N/A   Overcast
2:14 PM 32.0 °F 20.8 °F 19.8 °F 61% 30.06 in 10.0 mi NW 17.3 mph 21.9 mph N/A   Overcast
2:34 PM 32.0 °F 20.5 °F 19.4 °F 60% 30.06 in 10.0 mi NW 18.4 mph 27.6 mph N/A   Mostly Cloudy
2:54 PM 32.0 °F 20.5 °F 17.6 °F 55% 30.07 in 10.0 mi NW 18.4 mph 26.5 mph N/A   Scattered Clouds
3:14 PM 32.0 °F 20.5 °F 18.7 °F 58% 30.09 in 10.0 mi NW 18.4 mph - N/A   Mostly Cloudy
3:34 PM 31.1 °F 19.3 °F 16.0 °F 54% 30.10 in 10.0 mi NW 18.4 mph 26.5 mph N/A   Mostly Cloudy
3:54 PM 31.1 °F 18.9 °F 15.8 °F 53% 30.10 in 10.0 mi NNW 19.6 mph 24.2 mph N/A   Mostly Cloudy
4:14 PM 30.9 °F 21.7 °F 16.2 °F 54% 30.11 in 10.0 mi NW 11.5 mph 16.1 mph N/A   Mostly Cloudy
4:34 PM 30.7 °F 19.2 °F 14.9 °F 52% 30.13 in 10.0 mi NNW 17.3 mph 24.2 mph N/A   Mostly Cloudy
4:54 PM 30.2 °F 20.8 °F 14.7 °F 53% 30.13 in 10.0 mi NW 11.5 mph 18.4 mph N/A   Scattered Clouds
5:14 PM 29.7 °F 20.1 °F 15.3 °F 55% 30.13 in 10.0 mi NW 11.5 mph - N/A   Scattered Clouds
5:34 PM 28.9 °F 21.1 °F 16.2 °F 59% 30.14 in 10.0 mi NW 8.1 mph - N/A   Scattered Clouds
5:54 PM 28.4 °F 19.1 °F 15.8 °F 59% 30.15 in 10.0 mi WNW 10.4 mph - N/A   Scattered Clouds
6:14 PM 28.4 °F 20.4 °F 16.2 °F 60% 30.16 in 10.0 mi WNW 8.1 mph - N/A   Scattered Clouds
6:34 PM 27.7 °F 18.8 °F 17.2 °F 65% 30.18 in 10.0 mi WNW 9.2 mph - N/A   Scattered Clouds
6:54 PM 27.9 °F 17.3 °F 18.1 °F 67% 30.18 in 10.0 mi NW 12.7 mph - N/A   Scattered Clouds
7:14 PM 28.4 °F 18.0 °F 18.5 °F 66% 30.19 in 10.0 mi NW 12.7 mph 17.3 mph N/A   Mostly Cloudy
7:34 PM 27.7 °F 17.6 °F 18.5 °F 68% 30.20 in 10.0 mi NW 11.5 mph 17.3 mph N/A   Mostly Cloudy
7:54 PM 26.8 °F 18.5 °F 18.7 °F 72% 30.21 in 10.0 mi WNW 8.1 mph - N/A   Clear
8:13 PM 28.0 °F 18.6 °F 19.4 °F 70% 30.21 in 10.0 mi WNW 10.4 mph - N/A   Mostly Cloudy
8:34 PM 27.1 °F 18.9 °F 19.4 °F 73% 30.21 in 10.0 mi WNW 8.1 mph - N/A   Mostly Cloudy
8:54 PM 27.1 °F 17.5 °F 18.5 °F 70% 30.22 in 10.0 mi NW 10.4 mph 17.3 mph N/A   Scattered Clouds
9:13 PM 27.1 °F 19.7 °F 17.6 °F 67% 30.23 in 10.0 mi NW 6.9 mph - N/A   Scattered Clouds
9:34 PM 26.6 °F 16.8 °F 16.9 °F 67% 30.23 in 10.0 mi NW 10.4 mph - N/A   Scattered Clouds
9:54 PM 27.1 °F 15.9 °F 14.5 °F 59% 30.24 in 10.0 mi NW 13.8 mph 24.2 mph N/A   Scattered Clouds
10:13 PM 27.3 °F 16.6 °F 15.1 °F 60% 30.25 in 10.0 mi NW 12.7 mph 17.3 mph N/A   Mostly Cloudy
10:34 PM 26.4 °F 16.6 °F 15.6 °F 64% 30.26 in 10.0 mi NW 10.4 mph - N/A   Mostly Cloudy
10:54 PM 26.1 °F 15.6 °F 15.8 °F 65% 30.27 in 10.0 mi NW 11.5 mph - N/A   Scattered Clouds
11:13 PM 25.7 °F 16.4 °F 16.2 °F 67% 30.28 in 10.0 mi NW 9.2 mph - N/A   Scattered Clouds
11:34 PM 25.7 °F 16.4 °F 16.5 °F 68% 30.28 in 10.0 mi NW 9.2 mph - N/A   Scattered Clouds
11:54 PM 24.8 °F 15.3 °F 16.7 °F 71% 30.29 in 10.0 mi WNW 9.2 mph - N/A   Scattered Clouds